Sisseton, SD

11:36 AM CDT on October 02, 2014 (GMT -0500)
RAWS MARSHALL CO SD US | Change Station
CLOSE
Current Station
Personal Weather Station
Location: Lake City, SD
Elevation: 2009 ft
Nearby Weather Stations

Elev 2009 ft 45.80 °N, 97.45 °W | Updated 37 minutes ago

Partly Cloudy
Partly Cloudy
53 °F
Feels Like 53 °F
N
8
Wind Variable Wind from West
Gusts 11.0 mph

Today
High -- | Low -- °F
--% Chance of Precip.
Yesterday
High -- | Low -- °F
Precip. -- in
7:27 AM 7:06 PM
First Quarter, 60% visible
Pressure 29.89 in
Visibility 10.0 miles
Clouds Clear
Dew Point 49 °F
Humidity 85%
Rainfall 0.00 in
Snow Depth 0 in , 0 in
UV 4 out of 12
Pollen 2.10 out of 12
Air Quality Not available.
Flu Activity Not available.
METAR KETH 021616Z AUTO 00000KT 10SM CLR 12/09 A2989 RMK AO2

More Conditions Fewer Conditions

Pressure 29.89 in
Visibility 10.0 miles
Clouds Clear
Dew Point 49 °F
Humidity 85%
Rainfall 0.00 in
Snow Depth 0 in , 0 in
UV 4 out of 12
Pollen 2.10 out of 12
Air Quality Not available.
Flu Activity Not available.
METAR KETH 021616Z AUTO 00000KT 10SM CLR 12/09 A2989 RMK AO2

More Conditions Fewer Conditions

10-Day Weather Forecast

Almanac

Astronomy

Oct. 02, 2014 Rise Set
Actual Time 7:27 AM CDT 7:06 PM CDT
Civil Twilight 6:58 AM CDT 7:35 PM CDT
Nautical Twilight 6:23 AM CDT 8:10 PM CDT
Astronomical Twilight 5:48 AM CDT 8:45 PM CDT
Moon 3:29 PM CDT 12:29 AM CDT
Length of Visible Light 12h 37m
Length of Day
11h 38m
Tomorrow will be 3m 11s shorter.
First Quarter, 60% of the Moon is Illuminated
Today
First Quarter
Oct 8
Full
Oct 15
Last Quarter
Oct 23
New
Oct 30
First Quarter

Today's Extremes

State Highs State Lows

Community

WunderPhotos

Upload Photos

1,758,294 photos uploaded!

WunderBlogs® & News

Nearby

Snow Depth

Station Depth Elevation
North Rapid Creek 0 in 6130 ft
Blind Park 0 in 6890 ft

Earthquake Activity

City Distance Mag. Time & Date
No recent earthquake activity has been reported nearby.
Minimum magnitude displayed is 2.5.

Coastal Water Temperatures

Place Temperature
No Stations Reporting

Nearby Weather Stations